Location: A�t �Alizem
(31.2076°N, 8.7872°W)
Time: 00:21:15
(UTC+00:00)

Envisat - Pass Details

Date: 29 September 2021
Orbit: 764 x 766 km, 98.2° (Epoch: 17 October)

Event Time Altitude Azimuth Distance (km) Brightness Sun altitude
Rises 04:52:27 0° 26° (NNE) 3,231 6.8 -21.1°
Reaches altitude 10° 04:55:04 10° 38° (NE) 2,302 6.1 -20.5°
Maximum altitude 04:59:24 28° 97° (E) 1,403 5.1 -19.6°
Drops below altitude 10° 05:03:42 10° 156° (SSE) 2,290 5.6 -18.7°
Sets 05:06:17 0° 167° (SSE) 3,212 6.3 -18.2°
